[[{"header":{"parameterUnit":"m.s-1","parameterCategory":1,"la1":30.2991,"la2":30.254,"lo1":-89.0895,"lo2":-89.0444,"dy":0.0017,"dx":0.0017,"nx":28,"ny":28,"refTime":"2023-08-15T09:00:00:Z","depth":0,"parameterNumber":2,"parameterNumberName":"U-component_of_WINDS"},"data":[0,0,0,0,0,0,0,0,0,0,0,0,0,0,0,0,0,0,0,0,0,0,0,0,0,0,0,0,0,0,0,0,0,0,0,0,0,0,0,0,0,0,0,0,0,0,0,0,0,0,0,0,0,0,0,0,0,0,2.2931,2.2932,0,2.2973,2.2974,2.2974,2.2893,2.289,2.2888,2.2885,2.2928,2.2931,2.2935,0,0,0,0,0,0,0,0,0,0,0,0,0,2.2778,2.2781,2.2931,2.2932,2.2932,2.2973,2.2974,2.2974,2.2894,2.289,2.2887,2.2884,2.2926,2.2931,2.2935,0,0,0,0,0,0,0,0,0,0,0,0,0,2.2835,2.2782,2.2931,2.2897,2.2894,2.2973,2.2974,2.2974,2.2894,2.289,2.2886,2.2883,2.2925,2.293,2.2936,2.305,0,0,2.2952,2.2955,0,0,0,0,0,0,0,0,2.2832,2.284,2.2901,2.2899,2.2896,2.2924,2.2935,2.3,2.2895,2.2894,2.2885,2.2881,2.293,2.2934,2.2951,2.3052,2.3053,2.2953,2.2956,2.2958,2.296,0,0,0,0,0,0,0,2.2828,2.2838,2.2948,2.2902,2.2899,2.2878,2.2882,2.2947,2.2934,2.2894,2.2888,2.2894,2.2927,2.2946,2.2951,2.3054,2.2953,2.2957,2.2961,2.2963,2.3247,2.3251,0,0,0,0,0,0,2.2828,2.2835,2.2946,2.2949,2.2854,2.2884,2.2889,2.2919,2.2933,2.2931,2.2898,2.289,2.2939,2.2945,2.2953,2.3085,2.2958,2.2963,2.2967,2.3243,2.3248,2.3252,0,0,0,0,0,0,2.2825,2.2839,2.2945,2.2891,2.2902,2.2891,2.2926,2.2922,2.294,2.2936,2.2933,2.2919,2.2936,2.2945,2.3025,2.3085,2.2966,2.2971,2.3237,2.3244,2.325,2.3352,0,0,0,0,0,0,2.2821,2.2838,2.2883,2.2892,2.2906,2.3018,2.293,2.2926,2.295,2.2941,2.2955,2.2954,2.2933,2.3018,2.3031,2.3091,2.2975,2.3232,2.324,2.3248,2.3343,2.3361,2.3376,0,0,0,0,0,2.2816,2.291,2.2885,2.2899,2.2961,2.3022,2.3029,2.3004,2.2955,2.2999,2.2995,2.2953,2.3077,2.3027,2.3041,2.3103,2.3228,2.3238,2.3247,2.3336,2.3357,2.3376,0,0,0,0,0,0,2.2908,2.2911,2.2883,2.2983,2.3003,2.3008,2.3062,2.3028,2.3062,2.3052,2.3019,2.3023,2.3109,2.3114,2.3058,2.3212,2.3144,2.3157,2.3206,2.3227,2.3243,2.324,2.298,0,0,0,0,0,2.294,2.299,2.2989,2.3077,2.3088,2.3074,2.3099,2.3078,2.3097,2.3105,2.3107,2.3127,2.3169,2.3198,2.3238,2.3343,2.3344,2.3393,2.3409,2.3423,2.3434,2.3488,2.3509,2.3284,2.3284,2.3284,0,0,2.3006,2.3014,2.3047,2.3096,2.3108,2.316,2.3081,2.314,2.3177,2.3114,2.3189,2.3192,2.3211,2.3304,2.3345,2.331,2.3497,2.3435,2.3446,2.345,2.35,2.3521,2.354,2.3291,2.3289,2.3288,0,0,2.3153,2.3165,2.3238,2.3252,2.3272,2.3261,2.3279,2.3288,2.3287,2.3363,2.3316,2.3359,2.3434,2.3449,2.3467,2.3617,2.3579,2.363,2.3717,2.377,2.3787,2.3803,2.3855,2.3874,2.3642,2.3642,2.3642,0,2.3233,2.3309,2.328,2.3341,2.3363,2.3307,2.338,2.3395,2.3427,2.3443,2.3404,2.3495,2.3504,2.3599,2.3635,2.3652,2.367,2.3629,2.3787,2.3802,2.3817,2.3866,2.3885,2.3648,2.3647,2.3647,2.3646,0,2.3405,2.3458,2.3515,2.3546,2.3574,2.3642,2.3621,2.3653,2.3629,2.3622,2.3698,2.3707,2.3746,2.3767,2.3744,2.3858,2.3835,2.3793,2.3723,2.3845,2.389,2.3909,2.3657,2.3655,2.3653,2.3651,0,0,2.3613,2.3625,2.3646,2.3659,2.3675,2.3716,2.3779,2.3817,2.3844,2.3867,2.3918,2.3982,2.3942,2.3961,2.394,2.3986,2.4102,2.3937,2.3937,2.3966,2.4225,2.4257,2.4279,2.4077,2.408,2.4083,2.4223,0,2.3757,2.3866,2.384,2.3948,2.3995,2.3942,2.3997,2.4012,2.4007,2.4046,2.4039,2.4085,2.4029,2.404,2.4084,2.4079,2.4153,2.4068,2.4123,2.4125,2.4119,2.4303,2.4338,2.447,2.4241,2.4244,2.4246,0,2.394,2.3969,2.4081,2.4088,2.4107,2.4157,2.4188,2.4226,2.4242,2.4234,2.4256,2.4224,2.4285,2.4215,2.4298,2.4241,2.4262,2.4262,2.4267,2.4271,2.4193,2.4311,2.4511,2.4531,2.4274,2.4272,2.427,0,2.4078,2.4145,2.422,2.4233,2.4243,2.4279,2.4284,2.4296,2.432,2.4347,2.4362,2.4396,2.4415,2.4441,2.4419,2.4371,2.4505,2.4434,2.45,2.4501,2.453,2.4529,2.4736,2.4545,2.4545,2.4545,2.4544,0,2.4241,2.4312,2.4282,2.4328,2.4404,2.4374,2.445,2.445,2.446,2.4504,2.4461,2.4503,2.4472,2.4511,2.4494,2.4564,2.4573,2.4568,2.4563,2.4572,2.4572,2.4585,2.4575,2.455,2.4549,2.4548,2.4547,0,2.4408,2.4392,2.447,2.4472,2.4474,2.453,2.4532,2.4574,2.4564,2.4621,2.4632,2.4618,2.4661,2.4642,2.4688,2.4677,2.4767,2.4749,2.4761,2.4757,2.4823,2.4817,2.5045,2.5072,2.4865,2.4867,2.4869,0,2.4514,2.4566,2.4574,2.46,2.4608,2.4652,2.4675,2.4646,2.4672,2.4693,2.4732,2.4772,2.4802,2.4874,2.4868,2.4902,2.4885,2.4962,2.489,2.4897,2.4885,2.4882,2.4886,2.4977,2.4979,2.4981,2.4983,0,2.4701,2.469,2.4725,2.4758,2.4786,2.4811,2.4831,2.4855,2.4826,2.4858,2.4902,2.4925,2.4971,2.5011,2.5041,2.5046,2.501,2.5005,2.5022,2.5032,2.5036,2.5034,2.48,2.5,2.4999,2.4997,2.4996,2.4996,2.484,2.4883,2.4894,2.4935,2.4947,2.4966,2.5005,2.5,2.5036,2.5071,2.5052,2.5103,2.5115,2.5151,2.5161,2.5199,2.5169,2.5194,2.52,2.5206,2.5215,2.503,2.5205,2.5204,2.5204,2.5203,2.5203,0,2.5024,2.5028,2.5066,2.5095,2.5126,2.5088,2.5108,2.5137,2.5182,2.5196,2.5227,2.5276,2.5314,2.5309,2.5343,2.5375,2.5359,2.5385,2.5382,2.5384,2.5241,2.5222,2.5397,2.5397,2.5397,2.5397,2.5397,2.5397,2.5124,2.5194,2.5184,2.5259,2.5262,2.5312,2.5326,2.5343,2.5354,2.5411,2.5442,2.5439,2.5445,2.5479,2.5511,2.5509,2.5523,2.5555,2.5547,2.5413,2.5394,2.5376,2.5358,2.5559,2.5559,2.5686,2.5687,2.5688]},{"header":{"parameterUnit":"m.s-1","parameterCategory":1,"la1":30.2991,"la2":30.254,"lo1":-89.0895,"lo2":-89.0444,"dy":0.0017,"dx":0.0017,"nx":28,"ny":28,"refTime":"2023-08-15T09:00:00:Z","depth":0,"parameterNumber":3,"parameterNumberName":"V-component_of_WINDS"},"data":[0,0,0,0,0,0,0,0,0,0,0,0,0,0,0,0,0,0,0,0,0,0,0,0,0,0,0,0,0,0,0,0,0,0,0,0,0,0,0,0,0,0,0,0,0,0,0,0,0,0,0,0,0,0,0,0,0,0,2.2045,2.2044,0,2.1999,2.1999,2.1998,2.1921,2.1919,2.1918,2.1916,2.1871,2.1871,2.1871,0,0,0,0,0,0,0,0,0,0,0,0,0,2.2066,2.2066,2.2045,2.2044,2.2044,2.2,2.1999,2.1998,2.1921,2.1919,2.1917,2.1916,2.1871,2.1871,2.1871,0,0,0,0,0,0,0,0,0,0,0,0,0,2.2042,2.2066,2.2045,2.2,2.1995,2.2,2.1999,2.1998,2.1921,2.1919,2.1917,2.1915,2.1871,2.1871,2.1872,2.1917,0,0,2.1872,2.1872,0,0,0,0,0,0,0,0,2.2044,2.2042,2.2007,2.2003,2.1998,2.1963,2.1989,2.1971,2.1922,2.195,2.1916,2.1914,2.1904,2.1901,2.1897,2.1914,2.1912,2.1872,2.1872,2.1872,2.1873,0,0,0,0,0,0,0,2.2045,2.2043,2.2027,2.2007,2.2001,2.1982,2.1976,2.1986,2.194,2.1947,2.1941,2.1937,2.1901,2.1897,2.1896,2.1912,2.1872,2.1872,2.1873,2.1873,2.1962,2.1964,0,0,0,0,0,0,2.2053,2.2045,2.2028,2.2026,2.2016,2.1984,2.1977,2.1977,2.1939,2.1931,2.1939,2.1933,2.1898,2.1896,2.1894,2.1943,2.1872,2.1873,2.1873,2.196,2.1962,2.1965,0,0,0,0,0,0,2.2054,2.2053,2.203,2.2034,2.2029,2.1985,2.1986,2.1977,2.1973,2.1933,2.1924,2.1944,2.1896,2.1894,2.1911,2.194,2.1873,2.1873,2.1957,2.196,2.1964,2.2042,0,0,0,0,0,0,2.2055,2.2053,2.207,2.2035,2.2029,2.2048,2.1988,2.1978,2.1974,2.1966,2.1935,2.1928,2.1894,2.1911,2.1911,2.1939,2.1873,2.1954,2.1959,2.1962,2.2036,2.2047,2.2057,0,0,0,0,0,2.2056,2.2094,2.2071,2.207,2.2049,2.205,2.2047,2.2007,2.1977,2.1993,2.1967,2.1929,2.1937,2.1914,2.1913,2.1942,2.1952,2.1957,2.1962,2.2032,2.2045,2.2057,0,0,0,0,0,0,2.2135,2.2089,2.2063,2.2091,2.2075,2.2037,2.2056,2.2023,2.2016,2.2009,2.196,2.1954,2.1978,2.1961,2.1936,2.1982,2.1939,2.1944,2.1992,2.2004,2.2014,2.2017,2.1873,0,0,0,0,0,2.2156,2.216,2.212,2.2148,2.2141,2.21,2.2099,2.207,2.2052,2.2045,2.202,2.2004,2.2002,2.2003,2.1999,2.2034,2.2025,2.2053,2.2064,2.2072,2.2077,2.2093,2.2104,2.1981,2.1981,2.1981,0,0,2.2198,2.2173,2.2179,2.2163,2.2147,2.2153,2.2095,2.2104,2.2107,2.2046,2.206,2.2042,2.2021,2.2047,2.2057,2.2034,2.2109,2.2079,2.2086,2.2086,2.2099,2.2111,2.2121,2.1985,2.1984,2.1984,0,0,2.2278,2.226,2.2281,2.2267,2.2243,2.2216,2.2221,2.2188,2.2173,2.2187,2.214,2.2144,2.2143,2.213,2.2123,2.2197,2.2162,2.2198,2.2251,2.2267,2.2276,2.2285,2.231,2.232,2.2203,2.2203,2.2203,0,2.2334,2.234,2.2297,2.2307,2.2301,2.2246,2.2267,2.2255,2.2232,2.2229,2.2204,2.2201,2.2183,2.2204,2.2222,2.2219,2.2223,2.2201,2.2278,2.2286,2.2293,2.2317,2.2327,2.2207,2.2207,2.2207,2.2206,0,2.2409,2.2414,2.2434,2.2412,2.2408,2.2424,2.2384,2.2385,2.2356,2.2332,2.2346,2.2322,2.2313,2.2316,2.2288,2.2333,2.2319,2.2287,2.2242,2.231,2.2331,2.234,2.2214,2.2212,2.2211,2.221,0,0,2.2536,2.249,2.2498,2.2487,2.2457,2.246,2.2474,2.2464,2.2465,2.2452,2.2461,2.2462,2.2431,2.2424,2.2394,2.2408,2.2467,2.2374,2.2372,2.2391,2.2513,2.2537,2.2548,2.2444,2.2446,2.2447,2.2515,0,2.2608,2.2628,2.2589,2.2618,2.2622,2.2569,2.2581,2.2564,2.2541,2.2541,2.2516,2.2516,2.2477,2.2472,2.2484,2.2457,2.2491,2.2452,2.2452,2.2452,2.2457,2.2559,2.2584,2.2649,2.2523,2.2524,2.2525,0,2.2695,2.2685,2.2714,2.2681,2.2681,2.2692,2.268,2.268,2.266,2.2642,2.2634,2.2599,2.2609,2.2567,2.258,2.2555,2.2553,2.254,2.2541,2.2539,2.2492,2.2558,2.2669,2.2679,2.2538,2.2537,2.2536,0,2.2783,2.2777,2.2793,2.2785,2.2749,2.2757,2.2742,2.272,2.2716,2.2705,2.2702,2.2693,2.2688,2.2682,2.2645,2.2618,2.2663,2.2618,2.2648,2.2649,2.2659,2.2658,2.277,2.266,2.266,2.266,2.2659,0,2.2867,2.2886,2.2832,2.2842,2.2862,2.2818,2.2839,2.2819,2.2799,2.2804,2.2759,2.2764,2.2716,2.2717,2.2688,2.2703,2.2702,2.2687,2.2679,2.269,2.2692,2.2687,2.2681,2.2662,2.2661,2.2661,2.2661,0,2.2968,2.2932,2.2946,2.291,2.2901,2.2918,2.2887,2.2894,2.2869,2.2875,2.2875,2.2835,2.2833,2.2796,2.2786,2.2767,2.2793,2.2777,2.2799,2.2794,2.2826,2.2823,2.2937,2.2949,2.2833,2.2834,2.2835,0,2.3023,2.3037,2.3002,2.3002,2.2989,2.2989,2.2985,2.2942,2.294,2.2917,2.2928,2.2922,2.2915,2.2914,2.2884,2.2876,2.2859,2.29,2.2857,2.2868,2.2858,2.2857,2.2858,2.2908,2.291,2.2911,2.2912,0,2.3124,2.3106,2.3101,2.3091,2.3087,2.3077,2.3063,2.3066,2.3019,2.3018,2.3015,2.301,2.3,2.2994,2.2981,2.2965,2.2931,2.2926,2.2932,2.2943,2.2955,2.2947,2.2822,2.2923,2.2922,2.2921,2.292,2.292,2.3203,2.3212,2.3189,2.3185,2.3171,2.3159,2.3164,2.3139,2.3136,2.3124,2.3099,2.31,2.3079,2.3057,2.3045,2.3045,2.3024,2.3033,2.3036,2.3038,2.3044,2.2956,2.3042,2.3042,2.3042,2.3041,2.3041,0,2.3301,2.3283,2.328,2.3263,2.326,2.3228,2.3211,2.3211,2.3212,2.3195,2.3189,2.3185,2.318,2.315,2.314,2.3146,2.313,2.3145,2.3144,2.314,2.3064,2.3058,2.3158,2.3158,2.3158,2.3158,2.3158,2.3158,2.3351,2.3364,2.3343,2.3349,2.3331,2.3332,2.3325,2.3314,2.33,2.3298,2.3293,2.3273,2.3251,2.324,2.3233,2.3224,2.3222,2.3243,2.3229,2.3157,2.3146,2.3135,2.313,2.3243,2.3243,2.3305,2.3306,2.3306]}]]